Retour au catalogue

STARLINK-35935

ActifCommunicationsVLEO
NORAD 66527·PAYLOAD·🇺🇸 United States

Lancé Nov 19, 2025 depuis Cape Canaveral Space Force Station

Loading…

Prochains Passages (prochaines 24 heures)

TLE

FraisSource: CelesTrak SupGP

Époque: Sep 14, 2026, 21:10 UTC

1 66527C 25265M   26257.88243056 -.00001047  00000+0 -37909-4 0  2576
2 66527  43.0015 289.6523 0001431 262.9777 179.7103 15.27574019    15

Suivez STARLINK-35935 en temps réel avec AllMySat

Download on the App Store